Flag Weather past 2 weeks in Boulder, Colorado, U.S.A.

Now
39 °F

Clear.


Feels Like: 37 °F
Forecast: 35 / 52 °F
Wind: 3 mph from Southwest

Location: Broomfield / Jeffco

Current Time: Nov 22, 2014 at 5:06:44 AM

Latest Report: Nov 22, 2014 at 4:34 AM


Visibility: 10 mi

Pressure: 29.83 "Hg

Humidity: 36%

Dew point: 14 °F

Location of BoulderLocation

Historic Weather in Boulder — Graph

°F

Boulder temperature yesterday

Maximum temperature yesterday: 57 °F (at 1:48 PM)
Minimum temperature yesterday: 34 °F (at 11:34 PM)
Average temperature yesterday: 42 °F

Past Weeks' High & Low Weather Summary

 TemperatureHumidityPressure
High73 °F (Nov 9, 2:47 PM)100% (Nov 7, 11:54 PM)30.43 "Hg (Nov 7, 11:54 PM)
Low-2 °F (Nov 13, 4:35 AM)12% (Nov 8, 9:47 PM)29.46 "Hg (Nov 10, 5:47 AM)
Average30 °F56%30.04 "Hg
* Reported Nov 7 3:15 AM — Nov 22 3:55 AM, Boulder, Weather by CustomWeather, © 2014

Note: Actual official high and low records may vary slightly from our data, if they occured in-between our weather recording intervals... More about our weather records

Advertising

Boulder weather history for previous 24 hours

 ConditionsComfort  
Time TempWeatherWind HumidityBarometerVisibility
3:55 AM
Nov 22
36 °FClear.8 mph38%29.85 "Hg10 mi
3:34 AM36 °FClear.9 mph41%29.86 "Hg10 mi
3:15 AM34 °FClear.7 mph44%29.87 "Hg10 mi
2:55 AM36 °FClear.6 mph41%29.88 "Hg10 mi
2:35 AM36 °FClear.3 mph41%29.89 "Hg10 mi
2:15 AM34 °FClear.5 mph48%29.89 "Hg10 mi
1:55 AM36 °FClear.3 mph41%29.90 "Hg10 mi
1:35 AM34 °FClear.3 mph48%29.91 "Hg10 mi
1:15 AM37 °FClear.No wind38%29.92 "Hg10 mi
12:55 AM37 °FClear.5 mph38%29.92 "Hg10 mi
12:35 AM36 °FClear.3 mph44%29.93 "Hg10 mi
12:15 AM34 °FClear.3 mph51%29.94 "Hg10 mi
11:55 PM
Nov 21
36 °FClear.No wind44%29.95 "Hg10 mi
11:34 PM34 °FClear.7 mph51%29.95 "Hg10 mi
11:15 PM36 °FClear.5 mph44%29.95 "Hg10 mi
10:55 PM39 °FClear.3 mph39%29.96 "Hg10 mi
10:35 PM37 °FClear.3 mph41%29.96 "Hg10 mi
10:15 PM39 °FClear.3 mph39%29.97 "Hg10 mi
9:48 PM43 °FPassing clouds.No wind34%29.97 "Hg30 mi
8:55 PM43 °FPassing clouds.5 mph34%29.98 "Hg30 mi
7:45 PM41 °FPassing clouds.5 mph36%29.97 "Hg30 mi
6:45 PM45 °FPassing clouds.No wind31%29.97 "Hg30 mi
5:45 PM45 °FPassing clouds.7 mph31%29.96 "Hg60 mi
4:48 PM50 °FPartly cloudy.5 mph25%29.95 "Hg60 mi
3:50 PM54 °FBroken clouds.9 mph22%29.93 "Hg60 mi
2:48 PM57 °FBroken clouds.13 mph18%29.92 "Hg60 mi
1:48 PM57 °FBroken clouds.3 mph21%29.91 "Hg60 mi
12:53 PM55 °FBroken clouds.No wind24%29.91 "Hg30 mi
11:45 AM55 °FScattered clouds.7 mph24%29.93 "Hg30 mi
10:50 AM54 °FPassing clouds.6 mph26%29.96 "Hg30 mi
9:45 AM50 °FPassing clouds.5 mph32%29.97 "Hg30 mi
8:46 AM46 °FScattered clouds.3 mph32%29.97 "Hg60 mi
7:53 AM43 °FScattered clouds.5 mph34%29.97 "Hg60 mi
6:46 AM39 °FPassing clouds.3 mph39%29.95 "Hg60 mi
5:47 AM37 °FPassing clouds.6 mph45%29.95 "Hg20 mi
Weather by CustomWeather, © 2014

See weather overviewHow to use our weather pages